User: anonymous   Login
Location: �clusier
(49.9361°N, 2.7869°E)
Time: 21:45:52
(UTC+00:00)
Language:

FENGYUN 1C DEB - Orbit

View from above orbital plane
View from above orbital plane
View from above satellite
View from above satellite

Ground track
Ground track

The orbit data is extracted from the following two-line orbital elements,

1 31883U 99025CKJ 22021.63166782  .00000776  00000-0  16729-3 0  9992
2 31883  99.0409 149.5472 0153280  72.1941 289.5909 14.54655986772439
Epoch (UTC): 21 January 2022 15:09:36
Eccentricity: 0.0153280
inclination: 99.0409°
perigee height: 602 km
apogee height: 819 km
right ascension of ascending node: 149.5472°
argument of perigee: 72.1941°
revolutions per day: 14.54655986
mean anomaly at epoch: 289.5909°
orbit number at epoch: 77243

The dashed part of the orbit path shows where the satellite is in the earth's shadow,  

DLR